Quincy, IL

9:15 PM CDT on May 27, 2017 (GMT -0500)
Quincy Regional-Baldwin

Weather History for KUIN - December, 2011

Change the Weather History Date:

Thursday, December 15, 2011

  Actual Average Record
Temperature  
Mean Temperature 44 °F 30 °F  
Max Temperature 57 °F 37 °F 70 °F (1948)
Min Temperature 28 °F 22 °F -14 °F (1951)
Degree Days  
Heating Degree Days 22 35  
Month to date heating degree days 496  
Since 1 July heating degree days 1596  
Cooling Degree Days 0 0  
Month to date cooling degree days 0  
Year to date cooling degree days 1094  
Moisture  
Dew Point 35 °F    
Average Humidity 79    
Maximum Humidity 94    
Minimum Humidity 65    
Precipitation  
Precipitation 0.04 in 0.07 in 1.99 in (1992)
Month to date precipitation 1.23  
Year to date precipitation 36.31  
Sea Level Pressure  
Sea Level Pressure 30.04 in    
Wind  
Wind Speed 12 mph (WNW)    
Max Wind Speed 22 mph    
Max Gust Speed 31 mph    
Visibility 9 miles    
Events Rain    
T = Trace of Precipitation, MM = Missing Value Source: NWS Daily Summary

Daily Weather History Graph

Daily Weather History Graph

Search for Another Location

Airport or City:

Trip Planner

Search our weather history database for the weather conditions in past years. The results will help you decide how hot, cold, wet, or windy it might be!

Date:

Astronomy

Dec. 15, 2011 Rise Set
Actual Time 7:19 AM CST 4:40 PM CST
Civil Twilight 6:48 AM CST 5:11 PM CST
Nautical Twilight 6:14 AM CST 5:45 PM CST
Astronomical Twilight 5:41 AM CST 6:17 PM CST
Moon 10:06 PM CST (12/15) 10:35 AM CST (12/15)
Length of Visible Light 10h 22m
Length of Day
9h 21m
Waning Gibbous, 74% of the Moon is Illuminated
Dec 15
Waning Gibbous
Dec 17
Last Quarter
Dec 24
New
Jan 1
First Quarter
Jan 9
Full

Hourly Weather History & Observations

Time (CST) Temp. Windchill Dew Point Humidity Pressure Visibility Wind Dir Wind Speed Gust Speed Precip Events Conditions
12:32 AM 57.2 °F - 55.4 °F 94% 29.74 in 10.0 mi SW 9.2 mph - N/A   Mostly Cloudy
12:54 AM 57.9 °F - 55.0 °F 90% 29.74 in 10.0 mi SW 9.2 mph - N/A   Overcast
1:22 AM 55.4 °F - 50.0 °F 82% 29.75 in 7.0 mi West 9.2 mph - 0.04 in Rain Light Rain
1:54 AM 54.0 °F - 50.0 °F 86% 29.75 in 10.0 mi West 6.9 mph - 0.04 in   Overcast
2:54 AM 53.1 °F - 48.9 °F 86% 29.78 in 10.0 mi West 8.1 mph - 0.00 in   Overcast
3:37 AM 51.8 °F - 48.2 °F 88% 29.79 in 10.0 mi West 10.4 mph - N/A   Overcast
3:54 AM 51.1 °F - 46.9 °F 86% 29.80 in 10.0 mi WNW 12.7 mph - N/A   Overcast
4:33 AM 48.2 °F - 44.6 °F 87% 29.82 in 10.0 mi NW 17.3 mph - N/A   Overcast
4:54 AM 48.0 °F - 45.0 °F 89% 29.84 in 10.0 mi WNW 16.1 mph - N/A   Overcast
5:23 AM 46.4 °F 39.8 °F 44.6 °F 93% 29.85 in 3.0 mi NW 16.1 mph - 0.00 in Rain Light Rain
5:54 AM 42.8 °F 34.0 °F 39.2 °F 87% 29.89 in 6.0 mi WNW 20.7 mph 27.6 mph N/A   Overcast
6:04 AM 42.8 °F 34.3 °F 37.4 °F 81% 29.90 in 7.0 mi WNW 19.6 mph 25.3 mph N/A   Overcast
6:54 AM 39.9 °F 30.2 °F 35.1 °F 83% 29.95 in 10.0 mi WNW 20.7 mph 26.5 mph N/A   Overcast
7:41 AM 37.4 °F 27.8 °F 33.8 °F 87% 29.97 in 10.0 mi WNW 17.3 mph - N/A   Overcast
7:54 AM 37.9 °F 28.5 °F 33.1 °F 83% 29.98 in 10.0 mi WNW 17.3 mph 26.5 mph N/A   Overcast
8:54 AM 39.0 °F 31.4 °F 33.1 °F 79% 30.02 in 8.0 mi WNW 12.7 mph - N/A   Overcast
9:54 AM 37.9 °F 28.5 °F 30.9 °F 76% 30.06 in 10.0 mi WNW 17.3 mph 24.2 mph N/A   Overcast
10:54 AM 37.0 °F 28.9 °F 28.9 °F 73% 30.09 in 10.0 mi WNW 12.7 mph 26.5 mph N/A   Overcast
11:54 AM 36.0 °F 24.7 °F 28.0 °F 73% 30.11 in 9.0 mi NW 21.9 mph 31.1 mph N/A   Overcast
12:54 PM 35.1 °F 24.8 °F 26.1 °F 70% 30.13 in 9.0 mi NW 17.3 mph 25.3 mph N/A   Overcast
1:54 PM 34.0 °F 23.4 °F 25.0 °F 70% 30.17 in 9.0 mi WNW 17.3 mph 21.9 mph N/A   Overcast
2:33 PM 35.6 °F 26.6 °F 24.8 °F 65% 30.16 in 10.0 mi WNW 13.8 mph - N/A   Overcast
2:54 PM 35.1 °F 26.4 °F 26.1 °F 70% 30.18 in 10.0 mi WNW 12.7 mph - N/A   Overcast
3:54 PM 35.1 °F 25.5 °F 25.0 °F 67% 30.22 in 10.0 mi WNW 15.0 mph - N/A   Overcast
4:54 PM 35.1 °F 25.9 °F 25.0 °F 67% 30.24 in 10.0 mi NW 13.8 mph - N/A   Overcast
5:54 PM 34.0 °F 26.6 °F 25.0 °F 70% 30.26 in 10.0 mi WNW 9.2 mph - N/A   Overcast
6:54 PM 34.0 °F 25.5 °F 24.1 °F 67% 30.30 in 10.0 mi WNW 11.5 mph - N/A   Overcast
7:54 PM 34.0 °F 26.0 °F 24.1 °F 67% 30.33 in 10.0 mi WNW 10.4 mph - N/A   Overcast
8:54 PM 33.1 °F 26.9 °F 24.1 °F 70% 30.35 in 10.0 mi NW 6.9 mph - N/A   Overcast
9:54 PM 30.0 °F 22.4 °F 24.1 °F 79% 30.36 in 10.0 mi NNW 8.1 mph - N/A   Clear
10:54 PM 30.0 °F 22.4 °F 23.0 °F 75% 30.34 in 10.0 mi NW 8.1 mph - N/A   Clear
11:54 PM 28.9 °F 25.2 °F 23.0 °F 78% 30.36 in 10.0 mi WNW 3.5 mph - N/A   Clear